"2009-04-01 00:00:00",760657,12.09,350.1,4.817,0.655,6.657,101.4213,2.926,4.168,24.79,0,109.9,13.43,3.69,312.1
"2009-04-01 00:00:30",760658,11.92,349.8,3.925,0.919,6.718,101.4224,2.929,4.178,25.06,0,109.9,13.43,3.69,311.8
"2009-04-01 00:01:00",760659,12.28,350.3,4.628,0.611,6.542,101.4228,2.93,4.187,25.22,0,109.9,13.44,3.69,312.3
"2009-04-01 00:01:30",760660,12.47,346.4,5.005,0.664,6.478,101.4242,2.933,4.192,25.19,0,109.9,13.44,3.70,308.4
"2009-04-01 00:02:00",760661,11.89,341.5,7.054,0.843,6.536,101.4239,2.933,4.192,25.67,0,109.8,13.44,3.69,303.5
"2009-04-01 00:02:30",760662,12.33,333,6.206,0.639,6.762,101.4248,2.935,4.201,24.51,0,109.8,13.44,3.70,295.0
"2009-04-01 00:03:00",760663,10.8,343.1,7.361,0.761,6.653,101.4338,2.958,4.213,24.88,0,109.9,13.44,3.72,305.1
"2009-04-01 00:03:30",760664,11.68,340.2,6.651,1.968,6.558,101.444,2.984,4.25,25.52,0,109.8,13.44,3.75,302.2
"2009-04-01 00:04:00",760665,12.27,339.9,7.953,0.891,6.595,101.4494,2.997,4.226,24.69,0,109.8,13.44,3.76,301.9
"2009-04-01 00:04:30",760666,11.76,335.1,3.494,0.842,6.694,101.4576,3.018,4.239,24.52,0,109.8,13.44,3.78,297.1
"2009-04-01 00:05:00",760667,10.89,339.1,9.04,0.95,6.707,101.4578,3.019,4.248,23.7,0,109.8,13.44,3.78,301.1
"2009-04-01 00:05:30",760668,11.93,347.6,5.024,0.865,6.739,101.4581,3.02,4.278,24.47,0,109.8,13.44,3.78,309.6
"2009-04-01 00:06:00",760669,12.15,341.8,6.474,0.779,6.463,101.4581,3.02,4.264,24.09,0,109.8,13.43,3.78,303.8
"2009-04-01 00:06:30",760670,12.09,341.3,4.38,0.846,6.759,101.4581,3.02,4.285,23.66,0,109.9,13.43,3.78,303.3
"2009-04-01 00:07:00",760671,11.62,346.1,6.116,0.862,6.459,101.4604,3.026,4.296,23.61,0,109.9,13.43,3.79,308.1
"2009-04-01 00:07:30",760672,11.61,343.6,4.146,0.708,6.466,101.4697,3.049,4.312,23.86,0,109.8,13.43,3.81,305.6
"2009-04-01 00:08:00",760673,11.91,346,3.359,0.75,6.47,101.4824,3.082,4.325,23.76,0,109.8,13.43,3.84,308.0
"2009-04-01 00:08:30",760674,13.62,339.4,4.373,0.774,6.574,101.4898,3.101,4.324,23.67,0,109.9,13.43,3.86,301.4
"2009-04-01 00:09:00",760675,14.4,343.6,5.48,0.631,6.66,101.492,3.106,4.338,24.05,0,109.9,13.43,3.87,305.6
"2009-04-01 00:09:30",760676,14.85,345.4,5.131,0.668,6.859,101.492,3.106,4.361,24.61,0,109.9,13.43,3.87,307.4
"2009-04-01 00:10:00",760677,12.99,342.3,4.747,0.867,6.95,101.4915,3.105,4.351,24.63,0,109.9,13.43,3.87,304.3
"2009-04-01 00:10:30",760678,12.91,347.1,4.45,0.78,7.32,101.492,3.106,4.369,24.42,0,109.8,13.43,3.87,309.1
"2009-04-01 00:11:00",760679,12.29,345.8,4.588,1.048,6.795,101.492,3.106,4.352,24.24,0,109.9,13.43,3.87,307.8
"2009-04-01 00:11:30",760680,11.17,335.3,6.022,0.82,6.666,101.492,3.106,4.358,24.11,0,109.9,13.43,3.87,297.3
"2009-04-01 00:12:00",760681,12.59,338.9,5.694,0.697,6.859,101.492,3.106,4.392,24.06,0,109.9,13.44,3.87,300.9
"2009-04-01 00:12:30",760682,12.92,332.8,5.611,0.957,7.094,101.492,3.106,4.375,24.04,0,109.9,13.44,3.87,294.8
"2009-04-01 00:13:00",760683,12.51,332.3,3.99,0.924,7.014,101.492,3.106,4.374,24.66,0,109.9,13.44,3.87,294.3
"2009-04-01 00:13:30",760684,15.43,339.8,5.888,0.883,7.016,101.4917,3.106,4.386,24.69,0,109.9,13.44,3.87,301.8
"2009-04-01 00:14:00",760685,15.82,336.6,5.419,0.739,7.281,101.492,3.106,4.387,24.17,0,109.9,13.44,3.87,298.6
"2009-04-01 00:14:30",760686,17.46,336.3,4.203,0.807,7.6,101.4923,3.107,4.398,23.39,0,109.9,13.44,3.87,298.3
"2009-04-01 00:15:00",760687,18.6,334.4,4.544,0.942,7.782,101.4923,3.107,4.394,23.12,0,109.9,13.44,3.87,296.4
"2009-04-01 00:15:30",760688,20.4,332.2,4.581,1.055,8.07,101.4934,3.11,4.42,22.77,0,109.9,13.44,3.87,294.2
"2009-04-01 00:16:00",760689,19.72,337.1,4.448,0.832,8.31,101.498,3.122,4.397,22.77,0,109.9,13.44,3.88,299.1
"2009-04-01 00:16:30",760690,17.57,331.9,4.365,0.927,8.58,101.4971,3.119,4.406,22.79,0,109.9,13.44,3.88,293.9
"2009-04-01 00:17:00",760691,17.28,328.9,5.63,0.795,8.39,101.496,3.117,4.421,22.92,0,109.9,13.44,3.88,290.9
"2009-04-01 00:17:30",760692,17.03,333.7,5.337,0.801,8.45,101.4977,3.121,4.419,23.26,0,109.8,13.44,3.88,295.7
"2009-04-01 00:18:00",760693,16.45,328.7,3.715,0.897,8.31,101.5019,3.132,4.414,23.21,0,109.9,13.44,3.89,290.7
"2009-04-01 00:18:30",760694,15.98,324.9,4.222,0.754,8.46,101.5064,3.143,4.423,23.16,0,109.9,13.44,3.91,286.9
"2009-04-01 00:19:00",760695,17.5,334.5,6.578,1.037,8.31,101.5056,3.141,4.415,23.19,0,109.9,13.44,3.90,296.5
"2009-04-01 00:19:30",760696,17.74,333.2,4.458,1.185,8.15,101.5039,3.137,4.417,22.95,0,109.9,13.44,3.90,295.2
"2009-04-01 00:20:00",760697,17.95,331.5,4.214,0.823,8.17,101.5064,3.143,4.402,23.02,0,109.9,13.44,3.91,293.5
"2009-04-01 00:20:30",760698,17.12,326.2,5.35,0.616,8.5,101.507,3.145,4.408,23.09,0,109.9,13.44,3.91,288.2
"2009-04-01 00:21:00",760699,16.23,325,3.782,0.714,8.37,101.5047,3.139,4.409,23.27,0,109.9,13.44,3.90,287.0
"2009-04-01 00:21:30",760700,15.26,324.2,3.512,0.806,8.48,101.5016,3.131,4.43,23.02,0,109.9,13.44,3.89,286.2
"2009-04-01 00:22:00",760701,15.7,328.1,4.116,0.977,8.44,101.4926,3.108,4.415,22.54,0,109.9,13.44,3.87,290.1
"2009-04-01 00:22:30",760702,16.7,328.2,3.331,0.678,8.58,101.492,3.106,4.433,22.79,0,109.9,13.43,3.87,290.2
"2009-04-01 00:23:00",760703,15.28,331.5,3.865,0.758,8.56,101.492,3.106,4.392,22.77,0,109.9,13.43,3.87,293.5
"2009-04-01 00:23:30",760704,15.38,328.4,4.724,1.014,8.29,101.492,3.106,4.411,22.79,0,109.9,13.43,3.87,290.4
"2009-04-01 00:24:00",760705,15.96,326.6,3.475,0.796,8.19,101.492,3.106,4.404,23.25,0,109.9,13.43,3.87,288.6
"2009-04-01 00:24:30",760706,15.43,325.5,3.654,0.763,8.42,101.492,3.106,4.414,23.43,0,109.9,13.43,3.87,287.5
"2009-04-01 00:25:00",760707,16.12,327.4,4.704,0.922,8.24,101.492,3.106,4.405,23.44,0,109.9,13.43,3.87,289.4
"2009-04-01 00:25:30",760708,16.13,329.1,4.154,0.766,8.27,101.492,3.106,4.404,23.21,0,109.9,13.43,3.87,291.1
"2009-04-01 00:26:00",760709,16.07,327.9,4.604,0.866,8.34,101.492,3.106,4.379,23.18,0,109.9,13.43,3.87,289.9
"2009-04-01 00:26:30",760710,15.77,331.2,4.251,1.092,8.55,101.492,3.106,4.383,23.42,0,109.9,13.43,3.87,293.2
"2009-04-01 00:27:00",760711,13.26,332.6,3.732,0.841,8.3,101.492,3.106,4.398,23.68,0,109.9,13.43,3.87,294.6
"2009-04-01 00:27:30",760712,13.95,334.5,3.694,0.879,7.864,101.492,3.106,4.407,23.75,0,109.9,13.43,3.87,296.5
"2009-04-01 00:28:00",760713,14.58,330.6,3.992,0.816,7.844,101.492,3.106,4.387,23.99,0,109.9,13.44,3.87,292.6
"2009-04-01 00:28:30",760714,15.39,333.2,3.304,0.986,7.863,101.492,3.106,4.387,23.86,0,109.9,13.44,3.87,295.2
"2009-04-01 00:29:00",760715,14.72,333.6,3.212,0.908,7.721,101.492,3.106,4.393,23.96,0,109.9,13.44,3.87,295.6
"2009-04-01 00:29:30",760716,14.48,331.1,3.943,0.728,7.752,101.4923,3.107,4.404,24.01,0,109.9,13.44,3.87,293.1
"2009-04-01 00:30:00",760717,14.6,326.6,4.733,0.718,7.877,101.4923,3.107,4.41,24.01,0,109.9,13.44,3.87,288.6
"2009-04-01 00:30:30",760718,14.53,326.5,5.395,0.661,8.13,101.4923,3.107,4.414,23.98,0,109.9,13.44,3.87,288.5
"2009-04-01 00:31:00",760719,14.39,332.3,4.811,0.643,7.887,101.4934,3.11,4.406,23.86,0,109.9,13.44,3.87,294.3
"2009-04-01 00:31:30",760720,15.12,330.2,4.357,0.628,7.881,101.4977,3.121,4.428,24.03,0,109.9,13.44,3.88,292.2
"2009-04-01 00:32:00",760721,15.47,327.7,5.254,0.634,7.976,101.5016,3.131,4.418,24.29,0,109.8,13.44,3.89,289.7
"2009-04-01 00:32:30",760722,15.45,323.5,3.856,1.231,8.24,101.4997,3.126,4.423,24.33,0,109.9,13.44,3.89,285.5
"2009-04-01 00:33:00",760723,14.91,325,4.025,0.759,8.02,101.4946,3.113,4.415,24.2,0,109.9,13.44,3.88,287.0
"2009-04-01 00:33:30",760724,14.62,327.6,4.243,1.048,8.18,101.494,3.111,4.453,24.52,0,109.9,13.44,3.87,289.6
"2009-04-01 00:34:00",760725,15.36,327.6,4.329,0.968,8.09,101.4929,3.109,4.404,24.05,0,109.9,13.44,3.87,289.6
"2009-04-01 00:34:30",760726,15.91,328.4,3.595,0.888,8.26,101.4934,3.11,4.411,23.99,0,109.8,13.44,3.87,290.4
"2009-04-01 00:35:00",760727,16.44,328.6,4.801,0.722,8.16,101.4926,3.108,4.43,24.34,0,109.9,13.44,3.87,290.6
"2009-04-01 00:35:30",760728,16.15,329.2,4.408,0.559,8.24,101.4929,3.109,4.439,24.7,0,109.9,13.45,3.87,291.2
"2009-04-01 00:36:00",760729,16.22,325,4.35,0.663,8.48,101.4923,3.107,4.423,24.67,0,109.9,13.45,3.87,287.0
"2009-04-01 00:36:30",760730,16.09,324.5,3.943,0.965,8.56,101.4929,3.109,4.428,24.38,0,109.9,13.45,3.87,286.5
"2009-04-01 00:37:00",760731,16.54,323.1,4.521,0.703,8.44,101.4932,3.109,4.426,24.51,0,109.9,13.45,3.87,285.1
"2009-04-01 00:37:30",760732,16.24,325.7,3.638,0.725,8.17,101.4929,3.109,4.433,24.24,0,109.8,13.45,3.87,287.7
"2009-04-01 00:38:00",760733,16.65,321.3,5.262,1.138,8.43,101.4932,3.109,4.422,24.39,0,109.8,13.45,3.87,283.3
"2009-04-01 00:38:30",760734,16.2,314.2,3.862,0.928,8.86,101.492,3.106,4.421,23.48,0,109.8,13.44,3.87,276.2
"2009-04-01 00:39:00",760735,16.16,320.8,5.864,1.107,8.33,101.4923,3.107,4.419,23.38,0,109.9,13.44,3.87,282.8
"2009-04-01 00:39:30",760736,15.98,324,3.77,1.127,8.36,101.492,3.106,4.438,23.99,0,109.8,13.43,3.87,286.0
"2009-04-01 00:40:00",760737,15.68,321.4,4.563,0.679,8.33,101.492,3.106,4.429,23.42,0,109.8,13.43,3.87,283.4
"2009-04-01 00:40:30",760738,16.46,323.5,3.37,0.631,8.41,101.492,3.106,4.419,24.18,0,109.8,13.43,3.87,285.5
"2009-04-01 00:41:00",760739,16.49,322.7,4.074,0.6,8.52,101.492,3.106,4.421,24.14,0,109.9,13.43,3.87,284.7
"2009-04-01 00:41:30",760740,17.11,323.2,5.201,0.817,8.68,101.492,3.106,4.42,23.77,0,109.8,13.43,3.87,285.2
"2009-04-01 00:42:00",760741,18.81,320.2,5.157,1.03,8.72,101.4923,3.107,4.405,23.23,0,109.8,13.44,3.87,282.2
"2009-04-01 00:42:30",760742,18.85,322.9,4.862,1.142,8.86,101.492,3.106,4.402,23.35,0,109.8,13.43,3.87,284.9
"2009-04-01 00:43:00",760743,17.13,323.3,4.836,0.707,8.76,101.492,3.106,4.413,23.8,0,109.8,13.43,3.87,285.3
"2009-04-01 00:43:30",760744,16.4,319.9,3.587,0.813,8.68,101.4923,3.107,4.45,23.64,0,109.8,13.44,3.87,281.9
"2009-04-01 00:44:00",760745,15.96,323.4,4.126,0.683,8.51,101.4923,3.107,4.418,23.87,0,109.8,13.44,3.87,285.4
"2009-04-01 00:44:30",760746,16.56,323.2,3.568,0.659,8.81,101.492,3.106,4.416,23.92,0,109.8,13.45,3.87,285.2
"2009-04-01 00:45:00",760747,16.29,323.7,4.164,0.706,8.64,101.4923,3.107,4.438,23.82,0,109.9,13.45,3.87,285.7
"2009-04-01 00:45:30",760748,16.58,321.3,3.506,0.854,8.6,101.4923,3.107,4.419,23.89,0,109.8,13.45,3.87,283.3
"2009-04-01 00:46:00",760749,18.54,321,4.037,0.859,8.75,101.4923,3.107,4.416,23.32,0,109.8,13.45,3.87,283.0
"2009-04-01 00:46:30",760750,17.25,318.2,4.711,0.609,8.94,101.4923,3.107,4.426,23.62,0,109.8,13.45,3.87,280.2
"2009-04-01 00:47:00",760751,16.43,319.4,3.47,0.769,8.67,101.492,3.106,4.419,24.01,0,109.8,13.45,3.87,281.4
"2009-04-01 00:47:30",760752,15.9,319.9,5.244,0.884,8.57,101.4923,3.107,4.432,24.06,0,109.8,13.45,3.87,281.9
"2009-04-01 00:48:00",760753,16.84,316.7,3.504,0.625,8.71,101.492,3.106,4.416,24.04,0,109.8,13.45,3.87,278.7
"2009-04-01 00:48:30",760754,16.01,316.4,4.382,0.809,8.66,101.492,3.106,4.418,24.15,0,109.8,13.45,3.87,278.4
"2009-04-01 00:49:00",760755,16.21,318.3,4.106,0.655,8.57,101.492,3.106,4.431,24.39,0,109.9,13.45,3.87,280.3
"2009-04-01 00:49:30",760756,15.66,321.9,5.794,0.658,8.57,101.492,3.106,4.433,24.46,0,109.8,13.45,3.87,283.9
"2009-04-01 00:50:00",760757,15.29,323.2,4.374,0.899,8.37,101.492,3.106,4.42,24.87,0,109.8,13.45,3.87,285.2
"2009-04-01 00:50:30",760758,15.46,320.7,4.049,0.743,8.5,101.492,3.106,4.416,25.04,0,109.8,13.45,3.87,282.7
"2009-04-01 00:51:00",760759,16.18,318.8,3.993,0.915,8.59,101.492,3.106,4.415,24.51,0,109.8,13.45,3.87,280.8
"2009-04-01 00:51:30",760760,14.96,315.7,3.595,0.796,8.44,101.492,3.106,4.416,24.09,0,109.8,13.45,3.87,277.7
"2009-04-01 00:52:00",760761,15.29,317.2,3.824,0.772,8.29,101.492,3.106,4.424,24.48,0,109.8,13.45,3.87,279.2
"2009-04-01 00:52:30",760762,14.15,316.7,4.422,0.579,8.35,101.492,3.106,4.397,24.73,0,109.8,13.45,3.87,278.7
"2009-04-01 00:53:00",760763,14.21,317.8,4.13,0.76,8.06,101.492,3.106,4.403,25.05,0,109.8,13.45,3.87,279.8
"2009-04-01 00:53:30",760764,15.56,323.5,4.304,0.63,8.18,101.492,3.106,4.423,25.03,0,109.8,13.45,3.87,285.5
"2009-04-01 00:54:00",760765,16.11,324.7,3.696,0.552,8.29,101.492,3.106,4.428,24.93,0,109.8,13.45,3.87,286.7
"2009-04-01 00:54:30",760766,15.61,324.9,4.277,0.75,8.53,101.492,3.106,4.43,25,0,109.8,13.45,3.87,286.9
"2009-04-01 00:55:00",760767,15.43,324.6,4.602,0.513,8.33,101.492,3.106,4.421,24.67,0,109.8,13.45,3.87,286.6
"2009-04-01 00:55:30",760768,14.13,320,7.412,1.033,8.49,101.492,3.106,4.45,24.5,0,109.8,13.45,3.87,282.0
"2009-04-01 00:56:00",760769,14.23,315,4.504,1.164,8.67,101.492,3.106,4.422,23.26,0,109.8,13.44,3.87,277.0
"2009-04-01 00:56:30",760770,13.21,314,5.762,0.589,8.72,101.492,3.106,4.422,22.98,0,109.8,13.44,3.87,276.0
"2009-04-01 00:57:00",760771,13.32,312.1,5.367,1.031,8.19,101.492,3.106,4.419,23.46,0,109.9,13.44,3.87,274.1
"2009-04-01 00:57:30",760772,13.91,317.9,4.608,0.887,7.92,101.492,3.106,4.418,23.7,0,109.8,13.44,3.87,279.9
"2009-04-01 00:58:00",760773,12.47,309.7,4.953,0.969,8.04,101.492,3.106,4.414,23.83,0,109.8,13.44,3.87,271.7
"2009-04-01 00:58:30",760774,14.32,308.9,6.403,1.047,8.01,101.492,3.106,4.402,23.85,0,109.8,13.44,3.87,270.9
"2009-04-01 00:59:00",760775,14.34,317.2,4.464,0.623,7.882,101.492,3.106,4.415,24.18,0,109.8,13.44,3.87,279.2
"2009-04-01 00:59:30",760776,13.68,310.6,4.861,0.881,8.18,101.492,3.106,4.426,23.44,0,109.8,13.45,3.87,272.6
"2009-04-01 01:00:00",760777,14.61,319.4,4.4,0.756,8.35,101.492,3.106,4.397,22.36,0,109.8,13.45,3.87,281.4
"2009-04-01 01:00:30",760778,14.72,317.1,3.676,0.543,8.44,101.492,3.106,4.403,22.34,0,109.8,13.45,3.87,279.1
"2009-04-01 01:01:00",760779,14.79,322.3,5.315,0.701,8.33,101.492,3.106,4.406,23.64,0,109.9,13.45,3.87,284.3
"2009-04-01 01:01:30",760780,14.71,317.8,4.991,0.769,8.35,101.492,3.106,4.405,24.26,0,109.8,13.45,3.87,279.8
"2009-04-01 01:02:00",760781,13.57,318.2,4.652,0.639,8.62,101.492,3.106,4.406,24.03,0,109.8,13.45,3.87,280.2
"2009-04-01 01:02:30",760782,14.24,314.8,4.039,0.601,8.4,101.492,3.106,4.405,24.38,0,109.8,13.45,3.87,276.8
"2009-04-01 01:03:00",760783,13.72,311.5,4.749,0.78,8.35,101.4923,3.107,4.401,25.08,0,109.9,13.45,3.87,273.5
"2009-04-01 01:03:30",760784,13.52,307.4,5.677,0.841,8.27,101.4858,3.091,4.407,25.84,0,109.8,13.45,3.85,269.4
"2009-04-01 01:04:00",760785,12.95,309.6,4.703,0.75,7.936,101.4765,3.067,4.428,26.08,0,109.8,13.45,3.83,271.6
"2009-04-01 01:04:30",760786,12.93,315.8,4.208,0.764,8.13,101.4624,3.031,4.395,25.68,0,109.8,13.45,3.79,277.8
"2009-04-01 01:05:00",760787,14.2,315.1,5.053,0.807,8.22,101.4621,3.03,4.378,24.26,0,109.9,13.45,3.79,277.1
"2009-04-01 01:05:30",760788,13.28,317.2,5.924,0.927,8.22,101.461,3.027,4.362,23.57,0,109.8,13.46,3.79,279.2
"2009-04-01 01:06:00",760789,11,312,5.776,0.73,8.08,101.4602,3.025,4.356,23.68,0,109.8,13.46,3.79,274.0
"2009-04-01 01:06:30",760790,11.86,309.1,4.921,0.407,7.887,101.4529,3.007,4.338,25.38,0,109.8,13.46,3.77,271.1
"2009-04-01 01:07:00",760791,11.94,313.1,4.537,0.634,7.683,101.4388,2.97,4.343,26.04,0,109.8,13.46,3.73,275.1
"2009-04-01 01:07:30",760792,12.97,316.3,4.253,0.686,7.832,101.4397,2.973,4.329,25.97,0,109.8,13.46,3.74,278.3
"2009-04-01 01:08:00",760793,12.73,313.9,3.73,0.662,7.628,101.4428,2.981,4.298,26.09,0,109.8,13.46,3.74,275.9
"2009-04-01 01:08:30",760794,12.94,314.8,3.59,0.836,7.712,101.4457,2.988,4.292,26.42,0,109.8,13.46,3.75,276.8
"2009-04-01 01:09:00",760795,11.83,309.7,4.022,0.682,7.722,101.4364,2.964,4.268,26.58,0,109.8,13.46,3.73,271.7
"2009-04-01 01:09:30",760796,11.96,313.7,4.409,0.809,7.54,101.4209,2.925,4.256,26.46,0,109.8,13.46,3.69,275.7
"2009-04-01 01:10:00",760797,13.04,316.9,4.047,0.765,7.761,101.4175,2.916,4.252,25.79,0,109.8,13.46,3.68,278.9
"2009-04-01 01:10:30",760798,13.81,319.9,3.471,0.695,8.04,101.4201,2.923,4.25,25.19,0,109.8,13.46,3.69,281.9
"2009-04-01 01:11:00",760799,12.51,317.6,3.928,0.727,8.05,101.4195,2.921,4.222,25.09,0,109.9,13.46,3.68,279.6
"2009-04-01 01:11:30",760800,12.65,316.9,4.708,0.844,8.02,101.4182,2.918,4.237,25.12,0,109.8,13.46,3.68,278.9
"2009-04-01 01:12:00",760801,13.9,314.8,4.694,0.653,8.03,101.406,2.887,4.211,24.76,0,109.8,13.46,3.65,276.8
"2009-04-01 01:12:30",760802,13.47,317.5,4.603,0.766,8.31,101.393,2.854,4.201,24.81,0,109.8,13.46,3.62,279.5
"2009-04-01 01:13:00",760803,11.04,311,3.937,0.713,8.07,101.3905,2.847,4.194,25.01,0,109.8,13.46,3.61,273.0
"2009-04-01 01:13:30",760804,11.7,315.4,4.502,0.828,7.656,101.3908,2.848,4.174,25.46,0,109.8,13.46,3.61,277.4
"2009-04-01 01:14:00",760805,12.13,319.1,3.326,0.782,7.613,101.3908,2.848,4.145,25.67,0,109.8,13.46,3.61,281.1
"2009-04-01 01:14:30",760806,13.68,322.8,4.143,0.588,7.94,101.3908,2.848,4.136,25.62,0,109.8,13.46,3.61,284.8
"2009-04-01 01:15:00",760807,13.97,324.8,5.178,1.123,8.11,101.3894,2.844,4.136,25.38,0,109.8,13.46,3.61,286.8
"2009-04-01 01:15:30",760808,11.91,325.2,13.18,0.993,8.12,101.3772,2.813,4.147,24.48,0,109.8,13.46,3.58,287.2
"2009-04-01 01:16:00",760809,14.49,316,5.823,1.177,7.974,101.3617,2.774,4.124,23.75,0,109.8,13.46,3.54,278.0
"2009-04-01 01:16:30",760810,14.45,319.3,3.629,0.801,8.11,101.3571,2.762,4.1,24.78,0,109.8,13.46,3.52,281.3
"2009-04-01 01:17:00",760811,14.35,326.1,9.51,1.398,8.35,101.3568,2.761,4.108,25.03,0,109.8,13.47,3.52,288.1
"2009-04-01 01:17:30",760812,15.27,341.2,5.192,1.487,8.44,101.3568,2.761,4.104,24.06,0,109.8,13.47,3.52,303.2
"2009-04-01 01:18:00",760813,13.9,337,6.222,1.205,8.24,101.3568,2.761,4.088,24.11,0,109.8,13.47,3.52,299.0
"2009-04-01 01:18:30",760814,12.53,324.4,6.949,1.284,8.28,101.3568,2.761,4.1,24.73,0,109.8,13.47,3.52,286.4
"2009-04-01 01:19:00",760815,12.38,313.4,5.28,0.671,8.17,101.3568,2.761,4.078,24.78,0,109.8,13.47,3.52,275.4
"2009-04-01 01:19:30",760816,13.45,323.5,4.519,1,8.08,101.3568,2.761,4.077,25,0,109.7,13.47,3.52,285.5
"2009-04-01 01:20:00",760817,13.19,323.2,6.061,1.058,8.21,101.3568,2.761,4.064,24.89,0,109.7,13.47,3.52,285.2
"2009-04-01 01:20:30",760818,11.94,327.6,3.378,0.654,8.16,101.3568,2.761,4.073,25.23,0,109.7,13.47,3.52,289.6
"2009-04-01 01:21:00",760819,11.63,328.9,4.745,0.732,7.835,101.3568,2.761,4.068,25.51,0,109.8,13.47,3.52,290.9
"2009-04-01 01:21:30",760820,11.68,325.6,3.967,0.683,7.841,101.3568,2.761,4.064,25.77,0,109.7,13.47,3.52,287.6
"2009-04-01 01:22:00",760821,11.14,327.4,4.635,0.508,7.921,101.3557,2.758,4.067,25.93,0,109.7,13.47,3.52,289.4
"2009-04-01 01:22:30",760822,10.62,329.5,4.071,0.718,7.805,101.3512,2.747,4.071,26.17,0,109.7,13.47,3.51,291.5
"2009-04-01 01:23:00",760823,11.02,325.2,4.677,0.745,7.604,101.3424,2.725,4.048,26.22,0,109.7,13.47,3.49,287.2
"2009-04-01 01:23:30",760824,10.72,326.4,4.416,0.683,7.459,101.3379,2.713,4.058,26.22,0,109.7,13.47,3.47,288.4
"2009-04-01 01:24:00",760825,10.62,330.3,4.785,0.778,7.418,101.3308,2.695,4.052,26.5,0,109.7,13.48,3.46,292.3
"2009-04-01 01:24:30",760826,11.95,330.7,4.096,1.014,7.533,101.3229,2.675,4.039,26.12,0,109.7,13.48,3.44,292.7
"2009-04-01 01:25:00",760827,13.74,335.1,4.611,0.834,7.59,101.3235,2.676,4.031,26.05,0,109.7,13.48,3.44,297.1
"2009-04-01 01:25:30",760828,12.62,340.5,4.12,0.811,7.632,101.3241,2.678,4.031,26.05,0,109.7,13.48,3.44,302.5
"2009-04-01 01:26:00",760829,11.43,339.2,7.718,0.866,7.633,101.3227,2.674,4.005,26.01,0,109.7,13.48,3.44,301.2
"2009-04-01 01:26:30",760830,12.08,334.9,7.38,0.863,7.645,101.3134,2.65,4.007,26.07,0,109.7,13.48,3.41,296.9
"2009-04-01 01:27:00",760831,11.91,326.5,5.766,0.734,7.599,101.3027,2.623,4.003,26.13,0,109.7,13.48,3.38,288.5
"2009-04-01 01:27:30",760832,12.23,327.7,4.298,0.585,7.725,101.2985,2.612,4.007,26.12,0,109.7,13.47,3.37,289.7
"2009-04-01 01:28:00",760833,12.81,331.1,4.414,0.756,7.695,101.2982,2.612,3.993,26.19,0,109.7,13.48,3.37,293.1
"2009-04-01 01:28:30",760834,13.02,327.6,3.832,0.607,7.84,101.3016,2.62,3.965,26.34,0,109.7,13.47,3.38,289.6
"2009-04-01 01:29:00",760835,13.44,331.5,3.861,0.59,7.98,101.3022,2.622,3.969,26.39,0,109.7,13.47,3.38,293.5
"2009-04-01 01:29:30",760836,12.61,323.8,4.489,0.775,7.942,101.3045,2.628,3.965,26.43,0,109.7,13.48,3.39,285.8
"2009-04-01 01:30:00",760837,12.03,318.9,4.414,0.454,8,101.3022,2.622,3.945,26.98,0,109.7,13.47,3.38,280.9
"2009-04-01 01:30:30",760838,11.83,318.6,4.355,0.755,7.971,101.285,2.578,3.927,27.25,0,109.7,13.48,3.34,280.6
"2009-04-01 01:31:00",760839,12.85,321.8,4.767,1.187,7.885,101.2765,2.556,3.921,27.25,0,109.7,13.48,3.32,283.8
"2009-04-01 01:31:30",760840,12.38,326,3.996,0.826,8.05,101.2771,2.558,3.938,27,0,109.7,13.48,3.32,288.0
"2009-04-01 01:32:00",760841,11.07,324.4,4.506,0.906,7.775,101.2777,2.559,3.905,26.91,0,109.7,13.48,3.32,286.4
"2009-04-01 01:32:30",760842,12.13,328.7,4.25,1.029,7.728,101.2786,2.562,3.891,27.04,0,109.7,13.48,3.32,290.7
"2009-04-01 01:33:00",760843,10.78,316.1,5.53,0.559,7.84,101.2704,2.541,3.876,27.4,0,109.7,13.49,3.30,278.1
"2009-04-01 01:33:30",760844,11.43,321.8,6.289,0.774,7.545,101.2517,2.493,3.863,27.43,0,109.7,13.49,3.25,283.8
"2009-04-01 01:34:00",760845,9.51,317,6.013,0.733,7.428,101.2472,2.482,3.851,27.6,0,109.7,13.49,3.24,279.0
"2009-04-01 01:34:30",760846,10.56,322.5,3.562,0.729,7.367,101.2489,2.486,3.83,27.57,0,109.7,13.49,3.25,284.5
"2009-04-01 01:35:00",760847,9.49,322.7,4.419,0.656,7.332,101.2498,2.488,3.833,27.15,0,109.7,13.49,3.25,284.7
"2009-04-01 01:35:30",760848,8.05,323.3,3.621,0.865,6.98,101.2512,2.492,3.827,27.06,0,109.7,13.49,3.25,285.3
"2009-04-01 01:36:00",760849,7.064,309.5,9.47,0.809,6.79,101.2481,2.484,3.794,27.3,0,109.7,13.49,3.24,271.5
"2009-04-01 01:36:30",760850,7.704,288.6,6.333,1.062,5.665,101.2303,2.439,3.738,28.15,0,109.7,13.49,3.20,250.6
"2009-04-01 01:37:00",760851,7.058,282.8,4.738,1.01,3.116,101.2216,2.416,3.478,28,0,109.7,13.49,3.18,244.8
"2009-04-01 01:37:30",760852,7.633,290.7,8.05,1.175,4.323,101.2216,2.416,3.572,28.08,0,109.6,13.5,3.18,252.7
"2009-04-01 01:38:00",760853,7.823,296.1,7.329,1.224,6.382,101.2216,2.416,3.689,28.46,0,109.7,13.5,3.18,258.1
"2009-04-01 01:38:30",760854,8.6,281.1,5.441,0.578,7.645,101.2154,2.4,3.732,28.56,0,109.7,13.5,3.16,243.1
"2009-04-01 01:39:00",760855,7.772,287.2,4.488,0.797,7.359,101.1936,2.345,3.736,28.56,0,109.7,13.5,3.11,249.2
"2009-04-01 01:39:30",760856,7.842,287.8,4.727,0.914,6.818,101.1876,2.33,3.702,28.52,0,109.7,13.5,3.09,249.8
"2009-04-01 01:40:00",760857,7.54,288.1,7.13,1.189,5.662,101.1876,2.33,3.61,28.46,0,109.7,13.5,3.09,250.1
"2009-04-01 01:40:30",760858,6.93,284.9,6.38,0.997,3.318,101.1876,2.33,3.456,28.39,0,109.7,13.5,3.09,246.9
"2009-04-01 01:41:00",760859,8,292.7,6.217,1.232,5.87,101.1698,2.284,3.602,28.78,0,109.7,13.5,3.04,254.7
"2009-04-01 01:41:30",760860,8.56,295,5.607,1.086,6.944,101.1546,2.245,3.648,28.82,0,109.7,13.5,3.01,257.0
"2009-04-01 01:42:00",760861,8.47,289.6,6.746,1.035,6.892,101.1537,2.243,3.6,28.82,0,109.7,13.5,3.00,251.6
"2009-04-01 01:42:30",760862,8.25,288.2,4.841,0.985,6.986,101.1537,2.243,3.574,28.67,0,109.7,13.51,3.00,250.2
"2009-04-01 01:43:00",760863,8.86,291.8,4.45,0.647,6.981,101.154,2.244,3.607,28.62,0,109.7,13.51,3.00,253.8
"2009-04-01 01:43:30",760864,8.81,293.9,3.82,0.766,6.881,101.1515,2.237,3.607,28.72,0,109.8,13.5,3.00,255.9
"2009-04-01 01:44:00",760865,8.96,295,3.906,0.698,6.562,101.1319,2.187,3.585,28.77,0,109.7,13.5,2.95,257.0
"2009-04-01 01:44:30",760866,8.46,297.9,4.337,0.935,6.364,101.1198,2.156,3.589,28.73,0,109.7,13.5,2.92,259.9
"2009-04-01 01:45:00",760867,8.41,298.7,4.334,0.835,6.163,101.1204,2.158,3.581,28.92,0,109.7,13.5,2.92,260.7
"2009-04-01 01:45:30",760868,7.213,292.7,8.23,1.28,4.894,101.1206,2.159,3.501,29.08,0,109.7,13.5,2.92,254.7
"2009-04-01 01:46:00",760869,5.651,280,4.677,0.629,2.276,101.1232,2.165,3.3,28.84,0,109.7,13.5,2.92,242.0
"2009-04-01 01:46:30",760870,5.416,281.8,2.728,0.285,1.845,101.1255,2.171,3.255,28.95,0,109.7,13.54,2.93,243.8
"2009-04-01 01:47:00",760871,6.696,301,9.35,0.97,5.713,101.1272,2.175,3.515,28.92,0,109.7,13.5,2.94,263.0
"2009-04-01 01:47:30",760872,7.8,300.5,6.975,0.897,7.469,101.1238,2.167,3.503,28.71,0,109.7,13.51,2.93,262.5
"2009-04-01 01:48:00",760873,7.363,308.2,6.958,0.756,7.316,101.1185,2.153,3.515,28.95,0,109.7,13.51,2.91,270.2
"2009-04-01 01:48:30",760874,7.345,301.9,5.809,0.666,7.222,101.1157,2.146,3.477,29.21,0,109.7,13.51,2.91,263.9
"2009-04-01 01:49:00",760875,6.542,306.7,8.87,1.017,5.588,101.1087,2.128,3.399,29.27,0,109.7,13.51,2.89,268.7